Hourly Data Report for October 27, 2014

All times are specified in Local Standard Time (LST). Add 1 hour to adjust for Daylight Saving Time where and when it is observed.

CLYDE RIVER A
NUNAVUT

70°29'09.000" N
68°31'01.000" W
26.50 m
2400804
71090
YCY

Download Data

Hourly Data (October 2014)
Hourly Data Report for October 27, 2014
Temp Definition
°C
Dew Point Temp Definition
°C
Rel Hum Definition
%
Wind Dir Definition
10's deg

Wind Spd Definition
km/h
Visibility Definition
km
Stn Press Definition
kPa
Hmdx Definition


Wind Chill Definition


Weather Definition


TIME
00:00 Legend Double Dagger -14.3 -17.9 75 29 9 16.1 101.75   -20 LegendNANA
01:00 Legend Double Dagger -13.3 -17.1 73 30 11 16.1 101.77   -20 LegendNANA
02:00 Legend Double Dagger -12.2 -16.1 73 28 13 16.1 101.78   -19 LegendNANA
03:00 Legend Double Dagger -12.0 -15.9 73 29 13 16.1 101.80   -19 LegendNANA
04:00 Legend Double Dagger -11.7 -15.9 71 29 9 16.1 101.79   -17 LegendNANA
05:00 Legend Double Dagger -12.1 -16.0 73 27 11 16.1 101.80   -18 LegendNANA
06:00 Legend Double Dagger -12.2 -16.6 70 28 8 16.1 101.80   -17 LegendNANA
07:00 Legend Double Dagger -13.1 -17.0 73 28 8 16.1 101.80   -18 LegendNANA
08:00 Legend Double Dagger -13.7 -17.5 74 27 8 16.1 101.81   -19 LegendNANA
09:00 Legend Double Dagger -14.2 -17.6 76 27 9 16.1 101.81   -20 LegendNANA
10:00 Legend Double Dagger -12.2 -16.7 70 27 8 16.1 101.79   -17 LegendNANA
11:00 Legend Double Dagger -13.1 -16.4 77 29 9 16.1 101.78   -19 LegendNANA
12:00 Legend Double Dagger -11.1 -15.9 68 28 8 16.1 101.79   -16 LegendNANA
13:00 Legend Double Dagger -13.4 -16.6 77 28 8 16.1 101.76   -18 LegendNANA
14:00 Legend Double Dagger -12.8 -15.3 82 27 8 16.1 101.74   -18 LegendNANA
15:00 Legend Double Dagger -12.9 -14.7 87 29 4 16.1 101.73   -16 LegendNANA
16:00 Legend Double Dagger -13.5 -15.5 85 31 5 16.1 101.73   -17 LegendNANA
17:00 Legend Double Dagger -13.3 -15.5 83 29 8 16.1 101.71   -18 LegendNANA
18:00 Legend Double Dagger -13.5 -15.6 85 27 5 16.1 101.69   -17 LegendNANA
19:00 Legend Double Dagger -14.1 -16.2 85 31 5 16.1 101.66   -18 LegendNANA
20:00 Legend Double Dagger -13.8 -15.3 89 LegendMM 4 16.1 101.62   -17 LegendNANA
21:00 Legend Double Dagger -7.1 -10.0 80 17 22 16.1 101.56   -15 LegendNANA
22:00 Legend Double Dagger -6.3 -9.0 81 16 17 16.1 101.52   -13 LegendNANA
23:00 Legend Double Dagger -6.9 -9.5 82 17 17 16.1 101.47   -13 LegendNANA

Notes on Data Quality.

Legend

  • E = Estimated
  • M = Missing
  • NA = Not Available
  • ‡ = Partner data that is not subject to review by the National Climate Archives
Date modified: